DELTA 1 DEB, 21461

Orbit data source: Space-Track

DELTA 1 DEB, 21461 is space debris in SSO originally from a launch on Thu, 12 Jun 1975 UTC launched from the Air Force Western Test Range (AFWTR). Debris objects in space refer to the collection of defunct objects orbiting the Earth. Examples of debris include non-operational satellites, rocket bodies, and fragments generated from explosions, collisions, or faulty payload assembly.

Loading next visibility...
Identifier
21461, 1975-052EV
Orbit
SSO
Country
Flag of USUS
Related business
Manufacturer
Unknown
Mission
Spacecraft
Bus & Motor
Unknown
Mass
Unknown
Launch date (UTC)
1975-06-12 (51 years ago)
Launch vehicle
Unknown
Launch site
Air Force Western Test Range (AFWTR)
Object type
Payload
Rocket body
Debris
Shape & HBR
Unknown shape, 0.1 m
Radar Cross Section
Small (<0.1 m²)

Expand to show TLE details & history
Last TLE update: 23 hours ago

TLE from 23 hours ago
0 DELTA 1 DEB
1 21461U 75052EV  25348.59497646  .00000011  00000-0  11124-3 0  9999
2 21461  99.7314  92.1775 0205868 126.4713   1.1330 13.20448658666336
Epoch: 2025-12-14T14:16Z
TLE epoch observation values (Epoch: 2025-12-14T14:16:45.966Z)
Latitude
51.39056°
Longitude
-13.18365°
Altitude
1,035.513 km
Speed
7.414 km/s
True Right ascension
18h 58m 03s
True Declination
51° 13' 45"
Sunlit
Object was in daylight at epoch
Visualization orbit readout
Latitude
Unknown
Longitude
Unknown
Altitude
Unknown
Speed
Unknown
Apparent Right ascension
Unknown
Apparent Declination
Unknown
Sunlit
N/A
Visualization observer readout
Local Sidereal Time
11:43:26
Azimuth
Unknown
Elevation
Unknown
Doppler factor
Unknown
Orbital elements
Apogee altitude
1,335.953 km
Perigee altitude
1,024.743 km
Semi-major axis
7,558.485 km
Eccentricity
0.02059
Inclination
99.7314°
RAAN
92.1775°
Arg. of periapsis
126.4713°
True anomaly
1.18088°
Mean anomaly
1.133°
Eccentric anomaly
1.15681°
Mean motion
3.30287 °/min
Orbital period
109 mins
BSTAR
0.00011124
Loading maneuver chart data...
Computing Atmospheric mass density...

Documentation

Showing up to 5 results
|